User: anonymous   Login
Location: Unspecified
(0.0000°N, 0.0000°E)
Time: 23:57:27
(UTC+00:00)
Language:

STARLINK-35968 - Orbit

View from above orbital plane
View from above orbital plane
View from above satellite
View from above satellite

Ground track
Ground track

The orbit is defined by the following mean orbital elements,

1 66636U          26145.43210861 +.00000000 +00000-0 +22156-3 0 00002
2 66636  53.1564 143.6611 0001045  91.9981 268.1139 15.30200655    09
Epoch (UTC): 25 May 2026 10:22:14
Eccentricity: 0.0001045
inclination: 53.1564°
perigee height: 474 km
apogee height: 476 km
right ascension of ascending node: 143.6611°
argument of perigee: 91.9981°
revolutions per day: 15.30200655
mean anomaly at epoch: 268.1139°

The dashed part of the orbit path shows where the satellite is in the earth's shadow,  

DLR